Torna al catalogo

STARLINK-35520

AttivoComunicazioniVLEO
NORAD 66133·PAYLOAD·🇺🇸 United States

Lanciato Oct 22, 2025 da Vandenberg Space Force Base

Loading…

Prossimi Passaggi (prossime 24 ore)

TLE

AggiornatoSource: CelesTrak SupGP

Epoca: Sep 14, 2026, 15:20 UTC

1 66133C 25237V   26257.63937500 -.00025517  00000+0 -75410-3 0  2571
2 66133  53.1571 238.8153 0001245  90.1116 285.9347 15.34395502    19

Traccia STARLINK-35520 in tempo reale con AllMySat

Download on the App Store